Location: Caglio
(45.8667°N, 9.2333°E)
Time: 00:07:17
(UTC+00:00)

Daily predictions for brighter satellites

Satellite Brightness Start Highest point End
(mag) Time Altitude Azimuth Time Altitude Azimuth Time Altitude Azimuth
SL-16 R/B 4.1 00:12:20 30° NNE 00:12:20 30° NNE 00:15:52 10° N
Cosmos 1943 Rocket 4.5 00:17:16 18° N 00:17:16 18° N 00:19:09 10° N
CZ-2D R/B 4.5 00:19:06 10° NNE 00:20:45 18° NE 00:20:45 18° NE
Cosmos 2297 Rocket 4.2 00:26:00 10° N 00:28:49 23° NNE 00:28:49 23° NNE
Resurs 1-4 Rocket 4.3 00:32:57 10° NNE 00:34:54 22° NE 00:34:54 22° NE
Cosmos 2369 Rocket 4.4 00:41:05 20° N 00:41:05 20° N 00:43:20 10° N
CZ-4C R/B 4.4 00:47:10 18° NNW 00:47:57 19° NNW 00:52:29 10° NNE
USA 267 4.5 00:50:59 10° ENE 00:54:57 32° E 00:54:57 32° E
Cosmos 2227 Rocket 3.8 01:22:41 10° NNW 01:25:13 27° NNW 01:25:13 27° NNW
Lacrosse 5 3.8 01:32:48 23° E 01:32:48 23° E 01:35:11 10° ENE
USA 234 3.8 01:26:23 10° E 01:32:42 55° NNE 01:37:44 17° NW
ADEOS II 3.1 01:34:44 10° NNE 01:38:27 44° NE 01:38:27 44° NE
IDEFIX/ARIANE 42P 3.9 01:48:08 10° NNE 01:52:52 32° E 01:53:40 31° ESE
SL-16 R/B 4.2 01:57:25 21° NW 01:57:25 21° NW 01:59:32 10° NNW
ARIANE 5 R/B 3.2 01:57:03 10° NNE 02:01:51 49° E 02:01:51 49° E
IRS-1D 4.2 01:57:44 10° N 02:01:48 52° N 02:01:48 52° N
CZ-2D R/B 3.5 01:59:07 10° N 02:02:04 28° NNW 02:02:04 28° NNW
ATLAS 5 CENTAUR R/B 3.4 02:07:56 25° N 02:07:56 25° N 02:10:47 10° NNE
Cosmos 2297 Rocket 4.3 02:09:48 10° NW 02:10:32 14° NW 02:10:32 14° NW
Resurs 1-4 Rocket 3.7 02:13:12 10° N 02:15:58 23° NNW 02:15:58 23° NNW
Cosmos 2082 3.6 02:13:55 10° NNW 02:19:38 87° ENE 02:20:23 69° SE
USA 305 4.0 02:22:42 42° E 02:22:42 42° E 02:25:44 10° ENE
Meteor 1-26 Rocket 4.5 02:24:04 47° SSE 02:25:20 60° E 02:30:39 10° NNE
USA 306 3.8 02:26:37 47° E 02:26:37 47° E 02:29:48 10° ENE
X-37B 3.4 02:29:08 17° E 02:29:08 17° E 02:29:59 10° E
CZ-2D R/B 4.0 02:24:55 10° NNE 02:28:45 58° ENE 02:28:45 58° ENE
SJ 16-02 3.8 02:26:13 10° N 02:29:41 22° ENE 02:33:09 10° ESE
Meteor 1-25 Rocket 4.1 02:25:49 10° NNW 02:31:41 86° W 02:33:00 56° S
Cosmos 389 Rocket 4.1 02:32:18 34° ENE 02:32:18 34° ENE 02:35:10 10° NNE
Cosmos 1697 Rocket 2.5 02:32:33 77° SW 02:32:59 86° WNW 02:38:39 10° NNE
ASTEX 1 3.6 02:30:10 10° N 02:35:10 69° E 02:36:22 50° SSE
IRS-P3 4.1 02:30:19 10° N 02:35:28 62° WNW 02:35:28 62° WNW
H-2A R/B 3.4 02:32:25 10° SE 02:36:29 41° ENE 02:40:40 10° N
Cosmos 1980 Rocket 2.6 02:35:19 40° SSE 02:37:07 58° ESE 02:42:41 10° NNE
CZ-2C R/B 4.4 02:34:47 10° NE 02:39:10 28° E 02:43:34 10° SSE
Iridium 2 4.5 02:39:48 47° E 02:39:50 47° E 02:43:28 10° NNE
USA 267 3.3 02:33:53 10° NE 02:40:23 69° NNW 02:42:17 47° W
ERS-1 4.4 02:40:13 10° N 02:45:20 69° WNW 02:45:42 66° WSW
Cosmos 2263 Rocket 3.4 02:40:27 10° NNW 02:45:48 42° NE 02:51:09 10° SE
SL-8 R/B 3.8 02:46:01 62° NW 02:46:41 73° NNE 02:51:27 10° E
Meteor 1-14 Rocket 4.3 02:42:46 10° N 02:48:25 76° ENE 02:53:57 10° SSE
SL-16 R/B 4.4 02:46:17 10° SSE 02:50:32 22° E 02:54:48 10° NE
USA 307 2.8 02:52:24 86° NNW 02:52:24 86° NNW 02:56:41 10° NE
NOSS 2-2 (D) 4.5 02:48:30 10° NW 02:54:12 83° SW 03:02:10 10° SSE
Cosmos 1821 Rocket 4.1 02:48:51 10° NNW 02:54:58 54° W 02:56:29 44° SW
Cosmos 1812 4.4 02:52:18 13° SSE 02:55:08 31° E 02:58:34 10° NNE
USA 308 2.7 02:55:23 81° WNW 02:55:29 82° NNW 02:59:46 10° NE
Cosmos 1470 Rocket 4.0 02:51:57 10° NNW 02:55:25 47° NW 02:55:25 47° NW
Spot 4 Rocket 3.9 02:53:05 10° NNE 02:58:14 77° WNW 02:59:44 47° SSW
Cosmos 1500 4.1 02:57:32 10° N 03:01:18 48° ENE 03:05:00 10° SSE
Cosmos 972 4.5 02:59:29 33° S 03:01:43 76° ESE 03:06:37 10° NNE
Landsat 5 3.7 02:59:58 10° SSE 03:04:28 80° ENE 03:08:59 10° NNW
Cosmos 1934 Rocket 3.8 03:04:03 10° NNW 03:10:04 69° W 03:16:04 10° S
Cosmos 1782 2.9 03:10:11 55° WNW 03:10:11 55° WNW 03:14:08 10° N
Cosmos 1777 Rocket 4.2 03:05:49 10° NNW 03:10:47 45° WSW 03:12:06 37° SW
ERBS 4.2 03:09:57 21° SSE 03:10:52 23° SE 03:13:37 10° ENE
Cosmos 1238 Rocket 3.9 03:05:43 10° NNW 03:12:22 74° W 03:18:30 10° S
Lacrosse 5 2.0 03:12:00 42° W 03:13:30 60° NW 03:18:31 10° NE
ADEOS Rocket 3.8 03:08:18 10° SSE 03:15:02 59° ENE 03:21:07 10° N
CZ-4B R/B 3.7 03:12:41 10° SE 03:15:18 25° ENE 03:18:00 10° NNE
Cosmos 1515 Rocket 3.8 03:15:07 46° WSW 03:15:40 49° WNW 03:20:01 10° N
USA 234 3.2 03:09:15 10° SE 03:15:41 59° SW 03:22:09 10° WNW
CZ-2C R/B 2.7 03:14:12 10° N 03:17:56 63° WNW 03:18:32 53° WSW
ADEOS II 3.5 03:15:25 10° NNW 03:19:12 20° WNW 03:19:23 20° WNW
Nadezhda 3 Rocket 4.5 03:18:39 32° WSW 03:20:18 38° WNW 03:26:00 10° N
USA 276 2.9 03:21:38 40° NW 03:22:04 43° N 03:25:10 10° ENE
CSL-04 DEB 4.5 03:21:52 10° S 03:26:06 62° WSW 03:30:27 10° NNW
Cosmos 44 3.0 03:24:49 34° SW 03:26:43 84° NW 03:31:23 10° NE
MSX 3.9 03:23:05 10° N 03:28:45 59° WNW 03:32:39 20° SW
Cosmos 1356 3.7 03:25:27 10° NNW 03:28:27 44° WNW 03:28:27 44° WNW
Timation 1 Rocket 4.5 03:24:34 10° NW 03:30:20 50° WSW 03:36:05 10° S
IRIDIUM 103 4.3 03:25:12 10° N 03:30:28 86° E 03:35:41 10° S
Cosmos 921 Rocket 2.9 03:27:48 22° SSW 03:30:28 87° ESE 03:34:40 10° NNE
Cosmos 2278 3.9 03:28:10 29° WSW 03:30:58 54° WNW 03:36:34 10° NNE
IDEFIX/ARIANE 42P 3.2 03:27:39 10° N 03:32:28 37° WNW 03:34:28 27° WSW
Cosmos 1605 Rocket 4.0 03:26:30 10° NNW 03:32:52 72° W 03:39:14 10° S
Meteor 1-11 Rocket 4.2 03:27:13 10° N 03:33:01 66° ENE 03:38:40 10° SSE
Cosmos 1933 Rocket 4.1 03:29:39 10° NNW 03:33:36 34° W 03:34:18 32° WSW
Cosmos 2228 Rocket 3.0 03:31:12 23° SSW 03:33:48 62° W 03:38:11 10° N
CZ-3B R/B 3.4 03:32:06 20° WNW 03:34:12 37° N 03:43:38 10° ENE
ARIANE 5 R/B 3.7 03:36:46 10° N 03:40:49 24° WNW 03:42:10 21° W
CZ-4C R/B 3.7 03:42:39 30° WSW 03:43:20 32° W 03:46:37 10° NNW
Cosmos 1937 Rocket 4.3 03:38:46 10° NNW 03:43:50 53° ENE 03:48:50 10° SE
Meteor 1-27 Rocket 4.3 03:41:17 10° S 03:47:09 67° E 03:53:03 10° NNE
ALOS 3.4 03:43:17 10° NNE 03:47:47 45° E 03:52:14 10° S
Cosmos 1733 Rocket 4.3 03:43:36 10° N 03:47:47 44° ENE 03:51:56 10° SSE
IRIDIUM 106 4.3 03:43:35 10° N 03:48:46 66° W 03:53:56 10° S
Cosmos 1536 3.4 03:47:31 10° N 03:51:35 63° E 03:55:37 10° SSE
Cosmos 1869 Rocket 3.6 03:48:26 10° NNW 03:52:41 52° W 03:56:53 10° S
ATLAS 5 CENTAUR R/B 4.1 03:51:22 10° NNW 03:53:02 12° N 03:54:46 10° N
GENESIS II 4.2 03:51:47 17° SW 03:54:53 87° NW 03:58:57 10° NE
Meteor 1-4 Rocket 2.3 03:52:38 10° SSW 03:56:04 67° WNW 03:59:33 10° N
Cosmos 1484 Rocket 3.6 03:52:41 10° NNE 03:56:37 56° E 04:00:32 10° S
USA 305 3.8 03:58:51 17° W 04:01:44 38° NNW 04:05:44 10° NE
X-37B 0.6 04:01:25 21° W 04:03:23 71° S 04:06:34 10° ESE
Cosmos 1689 Rocket 3.6 04:00:53 10° SE 04:03:40 40° ENE 04:06:30 10° N
USA 306 3.8 04:02:46 15° W 04:05:50 37° NNW 04:09:49 10° NE
Cosmos 1727 Rocket 4.0 04:00:05 10° SSW 04:06:24 67° W 04:12:43 10° N
Cosmos 1763 Rocket 3.5 04:01:09 10° SSW 04:06:29 89° WNW 04:11:50 10° NNE
Cosmos 389 Rocket 4.2 04:06:11 15° W 04:06:45 15° WNW 04:08:58 10° NNW
Meteor 1-31 Rocket 3.4 04:03:36 10° NNE 04:07:23 59° E 04:11:10 10° S
Cosmos 2100 Rocket 4.1 04:01:06 10° N 04:07:31 88° E 04:13:54 10° S
SJ 16-02 1.7 04:04:19 10° NNW 04:08:27 41° WSW 04:12:33 10° S
Cosmos 1802 Rocket 4.4 04:03:39 10° N 04:09:50 70° E 04:16:04 10° SSE
PSLV R/B 4.1 04:05:57 10° N 04:09:51 37° WNW 04:13:43 10° SW
Cosmos 2360 Rocket 3.5 04:05:51 10° S 04:11:09 43° ESE 04:16:29 10° NE
H-2A R/B 3.3 04:09:15 10° SW 04:12:37 22° W 04:16:04 10° NW
ERS-2 3.0 04:10:15 10° SSW 04:13:25 28° W 04:16:37 10° NW
CZ-2C R/B 3.0 04:12:42 10° N 04:17:29 42° WNW 04:22:19 10° SW
Cosmos 1697 Rocket 4.3 04:14:19 11° W 04:17:49 18° NW 04:21:36 10° N
NOSS 3-4 (A) 4.1 04:12:39 10° NW 04:19:38 76° NE 04:27:23 10° SE
NOSS 3-4 (C) 4.1 04:12:45 10° NW 04:19:44 75° NE 04:27:30 10° SE
Gbstr 26 Del rocket 4.4 04:12:26 10° WNW 04:20:28 76° SW 04:27:25 10° SE
Cosmos 1980 Rocket 3.3 04:17:08 12° WSW 04:21:29 27° NW 04:26:16 10° N
METEOR-M 4.3 04:16:32 10° NNE 04:21:55 80° ESE 04:27:16 10° S
FALCON 9 DEB 4.3 04:18:54 10° SSW 04:22:06 38° SE 04:25:20 10° ENE
USA 267 4.2 04:16:56 10° NE 04:22:48 37° NNW 04:28:41 10° WNW
FENGYUN 3A 3.7 04:19:51 10° NNE 04:25:16 83° WNW 04:30:40 10° SSW
Cosmos 2322 Rocket 2.2 04:20:44 10° SSW 04:26:24 83° WNW 04:32:09 10° NNE
Cosmos 990 Rocket 4.3 04:23:14 10° NNW 04:28:08 44° WSW 04:33:03 10° S
NOSS 3-3 (A) 4.3 04:22:55 10° WSW 04:28:38 52° NW 04:35:07 10° NNE
NOSS 3-3 (C) 4.2 04:23:07 10° WSW 04:28:45 52° NW 04:35:13 10° NE
SL-8 R/B 4.1 04:24:32 10° WNW 04:29:07 47° SSW 04:33:41 10° SE
Cosmos 1459 Rocket 3.9 04:23:10 10° NNW 04:29:15 70° W 04:35:14 10° S
Cosmos 2263 Rocket 2.8 04:24:35 10° NW 04:29:37 34° WSW 04:34:38 10° SSW
SJ-12 4.4 04:25:30 10° NNE 04:29:38 67° ESE 04:33:44 10° S
CZ-4C R/B 4.3 04:23:22 10° NNW 04:29:44 37° NE 04:37:04 10° ESE
Cosmos 1812 4.1 04:28:07 10° WSW 04:30:59 20° WNW 04:33:53 10° NNW
Cosmos 468 Rocket 4.3 04:26:04 10° SW 04:31:13 51° WNW 04:36:22 10° NNE
Cosmos 2123 Rocket 4.5 04:25:04 10° S 04:31:14 69° E 04:37:30 10° NNE
USA 307 4.1 04:29:03 10° WNW 04:32:53 31° NNW 04:36:43 10° NE
SL-16 R/B 2.3 04:28:34 10° SW 04:34:10 61° WNW 04:39:48 10° NNE
COSMO-SKYMED 1 2.6 04:30:50 10° SSE 04:35:10 88° ENE 04:39:33 10° NNW
USA 308 4.2 04:32:11 10° WNW 04:36:00 31° NNW 04:39:50 10° NE
Cosmos 1844 Rocket 3.2 04:31:10 10° NNW 04:36:48 66° ENE 04:42:25 10° SE
SL-4 R/B 2.9 04:34:34 10° SW 04:39:07 58° SE 04:43:52 10° ENE
Cosmos 540 Rocket 3.5 04:34:34 10° SSW 04:39:44 88° WNW 04:44:57 10° NNE
Cosmos 44 Rocket 3.9 04:36:44 10° SSW 04:41:22 61° ESE 04:46:10 10° NE
ATLAS CENTAUR R/B 3.5 04:33:50 10° NW 04:42:23 47° NNE 04:45:57 10° E
ATLAS 2AS CENTAUR R/B 3.0 04:36:11 10° NW 04:43:46 86° NE 04:50:40 10° SE
